User: anonymous   Login
Location: Newark
(34.0131°N, 4.3314°W)
Time: 16:26:52
(UTC+00:00)
Language:

SR - Orbit

View from above orbital plane
View from above orbital plane
View from above satellite
View from above satellite

Ground track
Ground track

The orbit data is extracted from the following two-line orbital elements,

1    46U 60007B   19292.65325072  .00000012  00000-0  25374-4 0  9994
2    46  66.6912 339.8719 0215850 310.0575  48.1772 14.49250462104061
Epoch (UTC): 19 October 2019 15:40:40
Eccentricity: 0.0215850
inclination: 66.6912°
perigee height: 575 km
apogee height: 881 km
right ascension of ascending node: 339.8719°
argument of perigee: 310.0575°
revolutions per day: 14.49250462
mean anomaly at epoch: 48.1772°
orbit number at epoch: 10406

The dashed part of the orbit path shows where the satellite is in the earth's shadow,  

DLR